Regional Weather Roundup
Issued by NWS

Home | Current Version | Previous Version | Graphics & Text | Print | Product List | Glossary On
Versions: 1 2 3 4 5 6 7 8 9 10 11 12 13 14 15 16 17 18 19 20 21 22 23 24 25 26 27 28 29 30 31 32 33 34 35 36 37 38 39 40 41 42 43 44 45 46 47 48 49 50
000
ASUS43 KOAX 261602
RWRNE

WEATHER ROUNDUP FOR NEBRASKA
NATIONAL WEATHER SERVICE OMAHA NE
1100 AM CDT THU MAY 26 2016

NOTES: SATELLITE DATA IS BEING USED TO AUGMENT CLOUD COVER ABOVE
       12000 FEET.
       "FAIR" INDICATES FEW OR NO CLOUDS BELOW 12,000 FEET WITH NO
       SIGNIFICANT WEATHER AND/OR OBSTRUCTIONS TO VISIBILITY.

  * THESE STATIONS DO NOT REPORT WEATHER SUCH AS RAIN...SNOW OR FOG.

NEZ001>004-019>022-054>056-261700-
NEBRASKA PANHANDLE

CITY           SKY/WX    TMP DP  RH WIND       PRES   REMARKS
SCOTTSBLUFF    SUNNY     64  42  44 W9        29.95F
ALLIANCE       SUNNY     65  44  46 CALM      29.93S
CHADRON        SUNNY     66  44  45 N8        29.92F
SIDNEY         PTSUNNY   63  43  48 N10       29.96F
$$

NEZ057>060-069>072-079>082-261700-
SOUTHWEST NEBRASKA

CITY           SKY/WX    TMP DP  RH WIND       PRES   REMARKS
NORTH PLATTE   PTSUNNY   70  51  51 NE13      29.92F
IMPERIAL       MOSUNNY   70  48  45 NE16      29.91F
LEXINGTON      PTSUNNY   68  56  64 E10       29.91R
MCCOOK         CLOUDY    69  53  56 N17       29.89S
$$

NEZ005>010-023>029-035>040-094-261700-
NORTH CENTRAL NEBRASKA

CITY           SKY/WX    TMP DP  RH WIND       PRES   REMARKS
VALENTINE      PTSUNNY   69  46  43 S8        29.91F
AINSWORTH      CLOUDY    64  53  66 S8        29.93R
BROKEN BOW     PTSUNNY   65  54  67 E7        29.93R
ORD            CLOUDY    66  53  63 E9        29.90R
$$

NEZ041-046>049-061>064-073>077-083>087-261700-
SOUTH CENTRAL NEBRASKA

CITY           SKY/WX    TMP DP  RH WIND       PRES   REMARKS
GRAND ISLAND   MOSUNNY   71  56  58 E13       29.89F
HASTINGS       SUNNY     70  58  65 E9        29.87F
KEARNEY *      SUNNY     70  54  56 E10       29.89F
YORK           MOSUNNY   70  59  68 E8        29.87F
$$

NEZ011>018-030>034-042>045-261700-
NORTHEAST NEBRASKA

CITY           SKY/WX    TMP DP  RH WIND       PRES   REMARKS
NORFOLK        CLOUDY    70  55  59 VRB3      29.91R
ALBION         CLOUDY    68  55  63 SE5       29.92S
BLAIR          SUNNY     76  59  56 E5        29.88S
FREMONT        SUNNY     75  56  50 E3        29.88S
TEKAMAH        SUNNY     74  56  53 E5        29.87S
$$

NEZ050>053-065>068-078-088>093-261700-
SOUTHEAST NEBRASKA

CITY           SKY/WX    TMP DP  RH WIND       PRES   REMARKS
LINCOLN        CLOUDY    76  62  62 E6        29.86F
OMAHA EPPLEY   MOSUNNY   78  61  55 VRB3      29.86F
FALLS CITY     CLOUDY    77  67  71 SE10      29.84F
PLATTSMOUTH    SUNNY     78  66  66 SE7       29.86F
$$

NEZ044-045-051>053-067-261700-
OMAHA AREA

CITY           SKY/WX    TMP DP  RH WIND       PRES   REMARKS
OMAHA EPPLEY   MOSUNNY   78  61  55 VRB3      29.86F
BLAIR          SUNNY     76  59  56 E5        29.88S
FREMONT        SUNNY     75  56  50 E3        29.88S
OFFUTT AFB     SUNNY     78  62  58 NE6       29.85F
PLATTSMOUTH    SUNNY     78  66  66 SE7       29.86F
$$




USA.gov is the U.S. government's official web portal to all federal, state and local government web resources and services.